STARLINK-31663, 59576

Orbit data source: Space-Track

STARLINK-31663, 59576 is a payload satellite owned by SpaceX/Seattle (US) in LEO that was launched on Tue, 23 Apr 2024 UTC via an FALCON 9 launch vehicle from the Air Force Eastern Test Range (AFETR). Payload-class satellites include a variety of spacecraft equipped with specific instruments for various scientific and technological missions. These include communications satellites like Starlink; space stations such as the ISS; scientific satellites like the Hubble; Earth observation satellites from companies like Planet Labs, Umbra, and HawkEye 360; GPS; miniature CubeSats for education and research; and military/defense satellites.

Loading next visibility...
Identifier
59576, 2024-076N
Orbit
LEO
Last TLE update
10 hours ago
Origin
Manufacturer
SpaceX/Seattle
Mission
Operational spacecraft
Bus & Motor
STARLINK V2M, Unknown motor
Mass
730 kg wet, ~700 kg dry
Launch date (UTC)
2024-04-23 (1 year ago)
Launch vehicle
FALCON 9
Launch site
Air Force Eastern Test Range (AFETR)
Object type
Payload
Rocket body
Debris
Shape & HBR
Unknown
Radar Cross Section
Large (>1 m²)

Expand to show TLE details & history

TLE from 10 hours ago
0 STARLINK-31663
1 59576U 24076N   25128.88464881  .00000265  00000-0  19152-4 0  9991
2 59576  42.9999 290.6370 0000379 271.6067  88.4741 15.27580453 59883
Epoch: 2025-05-08T21:13Z
Definitive object data (Epoch: 2025-05-08T21:13:53.657Z)
Latitude
-0.00002°
Longitude
105.21467°
Altitude
482.816 km
Speed
7.626 km/s
True Right ascension
19h 22m 32s
True Declination
0° 00' 00"
Sunlit
Object was in full shadow at TLE epoch
Visualization TLE readout
Latitude
43.14793°
Longitude
-168.6298°
Altitude
486.455 km
Speed
7.628 km/s
Apparent Right ascension
02h 08m 19s
Apparent Declination
3° 36' 04"
Sunlit
Object is in daylight
Visualization observer readout
Local Sidereal Time
15:10:59
Azimuth
22.065° NNE
Elevation
-44.166°
Doppler factor
1
Orbital elements
Apogee altitude
485.253 km
Perigee altitude
484.733 km
Semi-major axis
6,863.13 km
Eccentricity
0.0000379
Inclination
42.9999°
RAAN
290.637°
Arg. of periapsis
271.6067°
True anomaly
88.47844°
Mean anomaly
88.4741°
Eccentric anomaly
88.47627°
Mean motion
3.81733 °/min
BSTAR
0.000019152
Orbital period
94.31 mins
Loading maneuver chart data...
Loading SW <> Apogee altitude chart data...
Loading historical data...
Loading historical data...
Loading historical data...
Loading historical data...
Loading historical data...
Loading historical data...
Loading historical data...

STARLINK-31663 Visibility forecast

Observer location: undefined°, undefined°

Span
Click to sort rows by Start time (UTC) header in descending order
Start Az.
Max El. time (UTC)
Max El. Az.
Max El.
End time (UTC)
End Az.
4 mins2025-05-09 13:06:03.294Z180.192° SSW2025-05-09 13:08:03.294Z147.489° SSE15.163°2025-05-09 13:10:03.294Z111.637° ESE
5 mins2025-05-09 14:45:03.294Z234.347° WSW2025-05-09 14:47:03.294Z126.928° SE42.575°2025-05-09 14:50:03.294Z75.105° E
5 mins2025-05-09 16:24:03.294Z288.447° WNW2025-05-09 16:26:03.294Z7.862° NNE38.521°2025-05-09 16:29:03.294Z71.507° E
5 mins2025-05-09 18:03:03.294Z295.16° NW2025-05-09 18:05:03.294Z10.022° NNE42.759°2025-05-09 18:08:03.294Z94.937° ESE
5 mins2025-05-09 19:42:03.294Z262.784° W2025-05-09 19:44:03.294Z203.865° SW30.92°2025-05-09 19:47:03.294Z143.434° SSE
|